DW9572 Weather Reports


time (UTC)temp
F
wind
direction
speed
knots
gust
knots
rain 1hr
in
rain 24hr
in
rain mn
in
humidity
%
barometer
mb
20260831140100 57 345 0.0 2.6 0.00 0.00 0.00 61 1014.2
20260831134540 55 354 1.7 3.5 0.00 0.00 0.00 65 1014.2
20260831133035 55 227 1.7 2.6 0.00 0.00 0.00 61 1014.2
20260831131517 54 15 0.0 0.9 0.00 0.00 0.00 63 1014.2
20260831130020 54 14 1.7 3.5 0.00 0.00 0.00 64 1014.1
20260831124558 56 336 0.0 7.8 0.00 0.00 0.00 57 1014.0
20260831123057 57 353 7.0 7.8 0.00 0.00 0.00 59 1013.9
20260831121539 59 64 0.9 7.8 0.00 0.00 0.00 56 1014.0
20260831120039 58 4 7.0 10.4 0.00 0.00 0.00 59 1013.7
20260831114518 56 354 7.8 8.7 0.00 0.00 0.00 64 1013.6
20260831113015 57 345 2.6 7.8 0.00 0.00 0.00 60 1013.8
20260831111611 56 18 2.6 3.5 0.00 0.00 0.00 59 1013.8
20260831110134 56 16 2.6 3.5 0.00 0.00 0.00 56 1013.8
20260831104546 56 152 0.9 1.7 0.00 0.00 0.00 60 1013.8
20260831103049 54 150 0.9 1.7 0.00 0.00 0.00 62 1013.8
20260831101546 54 150 0.0 0.0 0.00 0.00 0.00 62 1013.9
20260831100046 54 151 0.0 0.0 0.00 0.00 0.00 61 1013.7
20260831094542 54 151 0.0 0.9 0.00 0.00 0.00 62 1014.0
20260831093041 55 151 0.0 0.9 0.00 0.00 0.00 62 1014.2
20260831091549 56 150 0.0 1.7 0.00 0.00 0.00 56 1014.2
20260831090041 56 151 0.0 1.7 0.00 0.00 0.00 58 1014.2
20260831084538 57 151 0.9 1.7 0.00 0.00 0.00 55 1014.3
20260831083027 56 283 0.9 1.7 0.00 0.00 0.00 57 1014.2
20260831081529 56 85 0.0 0.9 0.00 0.00 0.00 57 1014.1
20260831080028 57 85 0.9 0.9 0.00 0.00 0.00 59 1014.2
20260831074537 58 85 0.0 0.9 0.00 0.00 0.00 58 1014.2
20260831073057 59 85 0.0 0.0 0.00 0.00 0.00 56 1014.2
20260831071526 60 79 0.0 0.0 0.00 0.00 0.00 48 1014.2
20260831070031 63 89 2.6 3.5 0.00 0.00 0.00 44 1014.2
20260831064534 63 313 0.0 2.6 0.00 0.00 0.00 45 1014.2
20260831063014 67 325 1.7 2.6 0.00 0.00 0.00 42 1014.2
20260831061507 68 326 1.7 2.6 0.00 0.00 0.00 41 1014.1
20260831060101 67 320 2.6 2.6 0.00 0.00 0.00 42 1014.0
20260831054551 68 311 0.0 2.6 0.00 0.00 0.00 41 1014.2
20260831053034 68 311 1.7 2.6 0.00 0.00 0.00 41 1014.3
20260831051531 68 307 1.7 2.6 0.00 0.00 0.00 41 1014.3
20260831050033 68 321 1.7 3.5 0.00 0.00 0.00 41 1014.3
20260831044513 68 324 0.0 0.0 0.00 0.00 0.00 41 1014.3
20260831043001 70 323 0.9 3.5 0.00 0.00 0.00 40 1014.2
20260831041503 70 335 1.7 2.6 0.00 0.00 0.00 40 1014.2
20260831040100 69 335 2.6 4.3 0.00 0.00 0.00 40 1014.2
20260831034600 70 342 3.5 4.3 0.00 0.00 0.00 40 1014.2
20260831033059 70 354 2.6 2.6 0.00 0.00 0.00 40 1014.1
20260831031558 70 346 1.7 3.5 0.00 0.00 0.00 40 1014.0
20260831024558 71 45 1.7 2.6 0.00 0.00 0.00 36 1013.8
20260831023039 72 58 3.5 5.2 0.00 0.00 0.00 35 1013.7
20260831021539 73 60 3.5 4.3 0.00 0.00 0.00 34 1013.6
20260831020022 74 90 4.3 7.8 0.00 0.00 0.00 33 1013.5
20260831014522 75 93 7.8 9.6 0.00 0.00 0.00 31 1013.5
20260831013008 78 113 3.5 7.0 0.00 0.00 0.00 25 1013.5
20260831011506 78 198 2.6 7.0 0.00 0.00 0.00 24 1013.4
20260831010007 78 225 4.3 9.6 0.00 0.00 0.00 22 1013.4
20260831004509 79 195 7.0 11.3 0.00 0.00 0.00 23 1013.5
20260831003007 79 207 7.8 12.2 0.00 0.00 0.00 22 1013.5
20260831001508 79 248 9.6 15.6 0.00 0.00 0.00 21 1013.6
20260831000005 79 174 4.3 9.6 0.00 0.00 0.00 21 1013.6
20260830234608 79 217 10.4 14.8 0.00 0.00 0.00 21 1013.8
20260830233104 79 219 9.6 14.8 0.00 0.00 0.00 24 1014.0
20260830231556 78 212 10.4 16.5 0.00 0.00 0.00 25 1014.1
20260830230041 78 191 5.2 11.3 0.00 0.00 0.00 26 1014.3
20260830224538 77 272 6.1 10.4 0.00 0.00 0.00 26 1014.5
20260830223035 76 204 6.1 13.0 0.00 0.00 0.00 30 1014.7
20260830221533 77 188 6.1 13.0 0.00 0.00 0.00 30 1014.9
20260830220053 75 191 4.3 16.5 0.00 0.00 0.00 31 1015.2
20260830214528 75 173 4.3 12.2 0.00 0.00 0.00 34 1015.4
20260830213026 74 139 3.5 11.3 0.00 0.00 0.00 34 1015.6
20260830211527 74 228 11.3 15.6 0.00 0.00 0.00 35 1015.9
20260830210003 74 182 9.6 13.9 0.00 0.00 0.00 35 1015.9
20260830204616 73 222 3.5 13.9 0.00 0.00 0.00 36 1016.0
20260830203042 72 186 7.0 14.8 0.00 0.00 0.00 37 1016.2
20260830201548 72 204 8.7 15.6 0.00 0.00 0.00 37 1016.3
20260830200032 71 195 7.0 15.6 0.00 0.00 0.00 39 1016.4
20260830194517 71 257 7.8 13.0 0.00 0.00 0.00 39 1016.5
20260830193056 70 297 5.2 12.2 0.00 0.00 0.00 40 1016.8
20260830191619 70 243 8.7 14.8 0.00 0.00 0.00 42 1016.9
20260830190053 69 195 8.7 14.8 0.00 0.00 0.00 42 1017.1
20260830184538 68 253 7.0 15.6 0.00 0.00 0.00 44 1017.1
20260830183035 68 259 7.8 14.8 0.00 0.00 0.00 46 1017.3
20260830181533 67 203 10.4 17.4 0.00 0.00 0.00 46 1017.3
20260830180037 67 276 9.6 16.5 0.00 0.00 0.00 47 1017.3
20260830174534 67 243 11.3 14.8 0.00 0.00 0.00 46 1017.4
20260830173029 67 235 12.2 15.6 0.00 0.00 0.00 47 1017.4
20260830171627 66 190 11.3 18.2 0.00 0.00 0.00 50 1017.3
20260830170003 65 245 9.6 13.9 0.00 0.00 0.00 51 1017.5
20260830164600 64 224 10.4 14.8 0.00 0.00 0.00 52 1017.6
20260830163042 63 222 12.2 15.6 0.00 0.00 0.00 55 1017.7
20260830161542 63 255 11.3 15.6 0.00 0.00 0.00 56 1017.9
20260830160027 62 218 11.3 15.6 0.00 0.00 0.00 58 1017.8
20260830154516 61 232 12.2 16.5 0.00 0.00 0.00 59 1017.7
20260830153055 61 225 11.3 15.6 0.00 0.00 0.00 60 1017.7
20260830151551 60 217 13.0 17.4 0.00 0.00 0.00 61 1017.5
20260830150039 59 240 13.0 17.4 0.00 0.00 0.00 61 1017.5
20260830144530 59 273 11.3 16.5 0.00 0.00 0.00 60 1017.4
20260830143012 59 252 8.7 13.0 0.00 0.00 0.00 58 1017.4
20260830141514 59 245 6.1 9.6 0.00 0.00 0.00 56 1017.5